Deming, NM

5:48 PM MDT on May 27, 2017 (GMT -0600)
Deming Municipal

Weather History for KDMN - February, 2012

Change the Weather History Date:

Wednesday, February 1, 2012

  Actual Average Record
Temperature  
Mean Temperature 44 °F 45 °F  
Max Temperature 63 °F 60 °F 75 °F (1971)
Min Temperature 25 °F 29 °F 13 °F (1951)
Degree Days  
Heating Degree Days 21    
Moisture  
Dew Point 15 °F    
Average Humidity 37    
Maximum Humidity 66    
Minimum Humidity 15    
Precipitation  
Precipitation 0.00 in 0.02 in 0.12 in (2016)
Month to date precipitation 0.02  
Year to date precipitation 0.63  
Sea Level Pressure  
Sea Level Pressure 30.11 in    
Wind  
Wind Speed 4 mph (SE)    
Max Wind Speed 12 mph    
Max Gust Speed -    
Visibility 10 miles    
Events      
T = Trace of Precipitation, MM = Missing Value Source: NWS Daily Summary

Daily Weather History Graph

Daily Weather History Graph

Search for Another Location

Airport or City:

Trip Planner

Search our weather history database for the weather conditions in past years. The results will help you decide how hot, cold, wet, or windy it might be!

Date:

Astronomy

Feb. 01, 2012 Rise Set
Actual Time 7:05 AM MST 5:44 PM MST
Civil Twilight 6:39 AM MST 6:09 PM MST
Nautical Twilight 6:10 AM MST 6:39 PM MST
Astronomical Twilight 5:41 AM MST 7:08 PM MST
Moon 12:19 PM MST (2/1) 1:49 AM MST (2/1)
Length of Visible Light 11h 30m
Length of Day
10h 38m
Waxing Gibbous, 65% of the Moon is Illuminated
Feb 1
Waxing Gibbous
Feb 7
Full
Feb 14
Last Quarter
Feb 21
New
Feb 29
First Quarter

Hourly Weather History & Observations

Time (MST) Temp. Windchill Dew Point Humidity Pressure Visibility Wind Dir Wind Speed Gust Speed Precip Events Conditions
12:53 AM 30.9 °F - 15.1 °F 52% 30.12 in 10.0 mi Calm Calm - N/A   Clear
1:53 AM 28.9 °F 25.2 °F 14.0 °F 54% 30.13 in 10.0 mi WSW 3.5 mph - N/A   Clear
2:53 AM 32.0 °F 27.5 °F 16.0 °F 52% 30.12 in 10.0 mi WSW 4.6 mph - N/A   Clear
3:53 AM 28.9 °F 23.9 °F 16.0 °F 58% 30.14 in 10.0 mi SW 4.6 mph - N/A   Clear
4:53 AM 28.0 °F 22.8 °F 15.1 °F 58% 30.14 in 10.0 mi SW 4.6 mph - N/A   Clear
5:53 AM 25.0 °F - 15.1 °F 66% 30.18 in 10.0 mi Calm Calm - N/A   Clear
6:53 AM 26.1 °F 20.5 °F 15.1 °F 63% 30.20 in 10.0 mi NW 4.6 mph - N/A   Clear
7:53 AM 30.0 °F - 17.1 °F 59% 30.22 in 10.0 mi Calm Calm - N/A   Clear
8:53 AM 41.0 °F 36.4 °F 19.0 °F 41% 30.22 in 10.0 mi SSE 6.9 mph - N/A   Clear
9:53 AM 53.1 °F - 19.0 °F 26% 30.20 in 10.0 mi East 10.4 mph - N/A   Clear
10:53 AM 57.9 °F - 18.0 °F 21% 30.18 in 10.0 mi ENE 11.5 mph - N/A   Clear
11:53 AM 60.1 °F - 19.0 °F 20% 30.17 in 10.0 mi East 10.4 mph 18.4 mph N/A   Clear
12:53 PM 61.0 °F - 15.1 °F 17% 30.12 in 10.0 mi SE 6.9 mph - N/A   Clear
1:53 PM 62.1 °F - 15.1 °F 16% 30.09 in 10.0 mi SSE 5.8 mph - N/A   Clear
2:53 PM 63.0 °F - 15.1 °F 16% 30.06 in 10.0 mi Variable 3.5 mph - N/A   Clear
3:53 PM 63.0 °F - 14.0 °F 15% 30.05 in 10.0 mi Variable 3.5 mph - N/A   Clear
4:53 PM 61.0 °F - 14.0 °F 16% 30.05 in 10.0 mi SW 3.5 mph - N/A   Clear
5:53 PM 55.9 °F - 14.0 °F 19% 30.05 in 10.0 mi SSE 3.5 mph - N/A   Clear
6:53 PM 48.9 °F - 12.9 °F 24% 30.07 in 10.0 mi ESE 4.6 mph - N/A   Clear
7:53 PM 46.0 °F 43.9 °F 12.9 °F 26% 30.07 in 10.0 mi East 4.6 mph - N/A   Clear
8:53 PM 41.0 °F - 12.9 °F 32% 30.04 in 10.0 mi Calm Calm - N/A   Clear
9:53 PM 41.0 °F 35.8 °F 14.0 °F 33% 30.00 in 10.0 mi NE 8.1 mph - N/A   Clear
10:53 PM 39.9 °F 37.8 °F 14.0 °F 35% 29.96 in 10.0 mi ENE 3.5 mph - N/A   Clear
11:53 PM 37.9 °F 33.5 °F 15.1 °F 39% 29.95 in 10.0 mi NNE 5.8 mph - N/A   Clear